Regional Weather Roundup
Issued by NWS Albany, NY

Home | Current Version | Previous Version | Text Only | Print | Product List | Glossary On
Versions: 1 2 3 4 5 6 7 8 9 10 11 12 13 14 15 16 17 18 19 20 21 22 23 24 25 26 27 28 29 30 31 32 33 34 35 36 37 38 39 40 41 42 43 44 45 46 47 48 49 50
000
ASUS41 KALY 250210
RWRALY

NEW YORK STATE HOURLY WEATHER ROUNDUP
NATIONAL WEATHER SERVICE ALBANY NY
1000 PM EDT SUN JUL 24 2016

NOTE: "FAIR" INDICATES FEW OR NO CLOUDS BELOW 12,000 FEET WITH NO
SIGNIFICANT WEATHER AND/OR NO OBSTRUCTIONS TO VISIBILITY.

NYZ032-033-038>043-046>054-057>066-NYZ062>081-082-084-250300-
EAST


CITY           SKY/WX    TMP DP  RH WIND       PRES   REMARKS
ALBANY         CLOUDY    77  58  51 CALM      29.96R
GLENS FALLS    CLOUDY    68  63  84 CALM      29.97R
POUGHKEEPSIE   CLOUDY    77  67  71 CALM      29.95R
NEWBURGH       PTCLDY    81  64  57 VRB5      29.98R
MONTGOMERY     CLOUDY    75  66  73 CALM      29.97R
WHITE PLAINS   PTCLDY    76  66  71 E5        29.98R
ISLIP          MOCLDY    76  71  85 S7        29.99R
NEW YORK CITY  MOCLDY    86  67  52 SW9       29.96R
CENTRAL PARK   CLEAR     83  66  56 VRB6      29.99R
$$

NYZ005>009-017-018-044>046-055-056-250300-
CENTRAL


CITY           SKY/WX    TMP DP  RH WIND       PRES   REMARKS
FULTON         CLOUDY    73  64  73 CALM      29.96S
SYRACUSE       CLOUDY    74  64  71 E5        29.96R
ROME           MOCLDY    69  65  86 CALM      29.98R
ELMIRA         CLOUDY    79  59  50 E3        29.97R
BINGHAMTON     CLOUDY    75  62  64 NE9       30.01R
MONTICELLO     PTCLDY    72  64  78 CALM      30.03S
$$

NYZ026>034-041>043-087-250300-
NORTH


CITY           SKY/WX    TMP DP  RH WIND       PRES   REMARKS
WATERTOWN      CLOUDY    72  58  61 E3        29.95S
FORT DRUM      NOT AVBL
MASSENA        CLOUDY    68  60  75 CALM      29.98R
SARANAC LAKE   PTCLDY    58  55  90 CALM      30.03R
PLATTSBURGH    PTCLDY    64  61  90 CALM      29.98S
$$

NYZ001>004-010>016-019>021-085-250300-
WEST


CITY           SKY/WX    TMP DP  RH WIND       PRES   REMARKS
NIAGARA FALLS  PTCLDY    79  57  46 S7        29.94S
BUFFALO        PTCLDY    78  59  51 SW7       29.96R
DUNKIRK        PTCLDY    73  68  84 S6        29.96F
JAMESTOWN      CLOUDY    70  64  83 SW5       30.02F
WELLSVILLE     CLOUDY    77  57  50 SW7       30.06R
ROCHESTER      PTCLDY    76  63  64 SE3       29.95F
PENN YAN       MOCLDY    69  62  78 CALM      29.99R
$$

             KEY
       WCI = WIND CHILL INDEX
       VSB = VISIBILITY
       HX  = HEAT INDEX
$$



USA.gov is the U.S. government's official web portal to all federal, state and local government web resources and services.